| time (UTC) | temp F | wind direction | speed MPH | gust MPH | rain 1hr in | rain 24hr in | rain mn in | humidity % | barometer mb |
| 20260508011109 | 56 | 347 | 0.0 | 0.0 | 0.00 | 0.00 | 0.00 | 90 | 1013.8 |
| 20260508010606 | 56 | 338 | 1.0 | 1.0 | 0.00 | 0.00 | 0.00 | 89 | 1013.6 |
| 20260508010105 | 56 | 345 | 1.0 | 1.0 | 0.00 | 0.00 | 0.00 | 89 | 1013.8 |
| 20260508005600 | 56 | 341 | 1.0 | 1.0 | 0.00 | 0.00 | 0.00 | 89 | 1013.9 |
| 20260508005057 | 56 | 342 | 1.0 | 1.0 | 0.00 | 0.00 | 0.00 | 89 | 1013.7 |
| 20260508004553 | 56 | 334 | 2.0 | 2.0 | 0.00 | 0.00 | 0.00 | 89 | 1013.8 |
| 20260508004050 | 56 | 335 | 1.0 | 1.0 | 0.00 | 0.00 | 0.00 | 89 | 1013.8 |
| 20260508003546 | 56 | 334 | 1.0 | 2.0 | 0.00 | 0.00 | 0.00 | 88 | 1013.7 |
| 20260508003044 | 56 | 341 | 1.0 | 1.0 | 0.00 | 0.00 | 0.00 | 88 | 1013.9 |
| 20260508002540 | 57 | 349 | 1.0 | 1.0 | 0.00 | 0.00 | 0.00 | 88 | 1013.9 |
| 20260508002037 | 57 | 71 | 1.0 | 1.0 | 0.00 | 0.00 | 0.00 | 87 | 1014.1 |
| 20260508001533 | 57 | 337 | 1.0 | 1.0 | 0.00 | 0.00 | 0.00 | 88 | 1014.0 |
| 20260508001029 | 57 | 349 | 0.0 | 1.0 | 0.00 | 0.00 | 0.00 | 88 | 1014.2 |
| 20260508000525 | 56 | 351 | 1.0 | 1.0 | 0.00 | 0.00 | 0.00 | 88 | 1014.2 |
| 20260508000023 | 57 | 350 | 1.0 | 1.0 | 0.00 | 0.00 | 0.00 | 88 | 1014.1 |
| 20260507235519 | 57 | 346 | 1.0 | 1.0 | 0.00 | 0.00 | 0.00 | 87 | 1014.1 |
| 20260507235017 | 57 | 345 | 0.0 | 0.0 | 0.00 | 0.00 | 0.00 | 88 | 1014.3 |
| 20260507234513 | 56 | 348 | 0.0 | 0.0 | 0.00 | 0.00 | 0.00 | 89 | 1014.1 |
| 20260507234010 | 56 | 350 | 0.0 | 0.0 | 0.00 | 0.00 | 0.00 | 89 | 1014.3 |
| 20260507233506 | 56 | 357 | 1.0 | 1.0 | 0.00 | 0.00 | 0.00 | 88 | 1014.6 |
| 20260507233005 | 56 | 350 | 0.0 | 0.0 | 0.00 | 0.00 | 0.00 | 88 | 1014.4 |
| 20260507232501 | 56 | 350 | 0.0 | 0.0 | 0.00 | 0.00 | 0.00 | 89 | 1014.6 |
| 20260507231959 | 55 | 348 | 0.0 | 0.0 | 0.00 | 0.00 | 0.00 | 89 | 1014.6 |
| 20260507231455 | 55 | 345 | 0.0 | 1.0 | 0.00 | 0.00 | 0.00 | 89 | 1014.9 |
| 20260507230952 | 55 | 347 | 1.0 | 1.0 | 0.00 | 0.00 | 0.00 | 89 | 1014.8 |
| 20260507230449 | 55 | 351 | 0.0 | 0.0 | 0.00 | 0.00 | 0.00 | 90 | 1014.9 |
| 20260507225944 | 55 | 344 | 1.0 | 1.0 | 0.00 | 0.00 | 0.00 | 89 | 1015.0 |
| 20260507225440 | 55 | 359 | 0.0 | 0.0 | 0.00 | 0.00 | 0.00 | 90 | 1015.3 |
| 20260507224937 | 55 | 336 | 2.0 | 2.0 | 0.00 | 0.00 | 0.00 | 90 | 1015.3 |
| 20260507224432 | 55 | 336 | 0.0 | 0.0 | 0.00 | 0.00 | 0.00 | 91 | 1015.0 |
| 20260507223930 | 55 | 333 | 1.0 | 2.0 | 0.00 | 0.00 | 0.00 | 90 | 1015.2 |
| 20260507223425 | 54 | 351 | 1.0 | 1.0 | 0.00 | 0.00 | 0.00 | 91 | 1015.4 |
| 20260507222922 | 55 | 339 | 2.0 | 2.0 | 0.00 | 0.00 | 0.00 | 90 | 1015.7 |
| 20260507222420 | 55 | 349 | 1.0 | 1.0 | 0.00 | 0.00 | 0.00 | 90 | 1015.6 |
| 20260507221916 | 55 | 350 | 1.0 | 2.0 | 0.00 | 0.00 | 0.00 | 90 | 1015.7 |
| 20260507221413 | 55 | 348 | 0.0 | 0.0 | 0.00 | 0.00 | 0.00 | 90 | 1015.5 |
| 20260507220908 | 55 | 328 | 2.0 | 2.0 | 0.00 | 0.00 | 0.00 | 90 | 1015.5 |
| 20260507220407 | 55 | 339 | 1.0 | 1.0 | 0.00 | 0.00 | 0.00 | 90 | 1015.4 |
| 20260507215903 | 55 | 328 | 2.0 | 2.0 | 0.00 | 0.00 | 0.00 | 90 | 1015.4 |
| 20260507215400 | 55 | 326 | 3.0 | 3.0 | 0.00 | 0.00 | 0.00 | 90 | 1015.3 |
| 20260507214857 | 55 | 344 | 3.0 | 3.0 | 0.00 | 0.00 | 0.00 | 89 | 1015.3 |
| 20260507214354 | 55 | 341 | 1.0 | 1.0 | 0.00 | 0.00 | 0.00 | 90 | 1015.5 |
| 20260507213850 | 56 | 316 | 1.0 | 1.0 | 0.00 | 0.00 | 0.00 | 90 | 1015.4 |
| 20260507213347 | 56 | 352 | 0.0 | 0.0 | 0.00 | 0.00 | 0.00 | 90 | 1015.3 |
| 20260507212844 | 56 | 321 | 1.0 | 1.0 | 0.00 | 0.00 | 0.00 | 90 | 1015.2 |
| 20260507212339 | 55 | 349 | 0.0 | 0.0 | 0.00 | 0.00 | 0.00 | 90 | 1015.3 |
| 20260507211836 | 55 | 337 | 1.0 | 1.0 | 0.00 | 0.00 | 0.00 | 90 | 1015.0 |
| 20260507211333 | 55 | 339 | 2.0 | 2.0 | 0.00 | 0.00 | 0.00 | 90 | 1015.0 |
| 20260507210830 | 56 | 330 | 2.0 | 3.0 | 0.00 | 0.00 | 0.00 | 91 | 1015.0 |
| 20260507210327 | 55 | 335 | 3.0 | 3.0 | 0.00 | 0.00 | 0.00 | 90 | 1015.0 |
| 20260507205823 | 56 | 337 | 2.0 | 3.0 | 0.00 | 0.00 | 0.00 | 90 | 1015.0 |
| 20260507205320 | 57 | 329 | 3.0 | 3.0 | 0.00 | 0.00 | 0.00 | 89 | 1015.0 |
| 20260507204816 | 57 | 347 | 2.0 | 2.0 | 0.00 | 0.00 | 0.00 | 90 | 1014.7 |
| 20260507204314 | 57 | 328 | 2.0 | 2.0 | 0.00 | 0.00 | 0.00 | 89 | 1014.9 |
| 20260507203812 | 57 | 333 | 2.0 | 2.0 | 0.00 | 0.00 | 0.00 | 90 | 1014.7 |
| 20260507203309 | 57 | 337 | 2.0 | 2.0 | 0.00 | 0.00 | 0.00 | 90 | 1014.7 |
| 20260507202805 | 57 | 341 | 1.0 | 1.0 | 0.00 | 0.00 | 0.00 | 89 | 1014.7 |
| 20260507202306 | 57 | 338 | 2.0 | 2.0 | 0.00 | 0.00 | 0.00 | 90 | 1014.8 |
| 20260507201756 | 57 | 328 | 2.0 | 2.0 | 0.00 | 0.00 | 0.00 | 90 | 1014.5 |
| 20260507201253 | 57 | 342 | 1.0 | 1.0 | 0.00 | 0.00 | 0.00 | 90 | 1014.6 |
| 20260507200750 | 57 | 324 | 2.0 | 2.0 | 0.00 | 0.00 | 0.00 | 90 | 1014.6 |
| 20260507200246 | 57 | 329 | 2.0 | 2.0 | 0.00 | 0.00 | 0.00 | 89 | 1014.6 |
| 20260507195742 | 57 | 331 | 1.0 | 1.0 | 0.00 | 0.00 | 0.00 | 90 | 1014.5 |
| 20260507195239 | 57 | 350 | 2.0 | 2.0 | 0.00 | 0.00 | 0.00 | 90 | 1014.4 |
| 20260507194737 | 57 | 345 | 1.0 | 1.0 | 0.00 | 0.00 | 0.00 | 90 | 1014.7 |
| 20260507194232 | 57 | 357 | 1.0 | 1.0 | 0.00 | 0.00 | 0.00 | 89 | 1014.4 |
| 20260507193729 | 57 | 339 | 1.0 | 2.0 | 0.00 | 0.00 | 0.00 | 89 | 1014.7 |
| 20260507193226 | 57 | 341 | 0.0 | 0.0 | 0.00 | 0.00 | 0.00 | 90 | 1014.6 |
| 20260507192722 | 56 | 341 | 1.0 | 1.0 | 0.00 | 0.00 | 0.00 | 90 | 1014.6 |
| 20260507192219 | 56 | 347 | 1.0 | 1.0 | 0.00 | 0.00 | 0.00 | 90 | 1014.4 |
| 20260507191715 | 56 | 351 | 0.0 | 0.0 | 0.00 | 0.00 | 0.00 | 90 | 1014.5 |
| 20260507191212 | 56 | 348 | 0.0 | 0.0 | 0.00 | 0.00 | 0.00 | 90 | 1014.6 |
| 20260507190709 | 56 | 350 | 0.0 | 0.0 | 0.00 | 0.00 | 0.00 | 91 | 1014.8 |
| 20260507190208 | 56 | 348 | 0.0 | 0.0 | 0.00 | 0.00 | 0.00 | 91 | 1015.1 |
| 20260507185706 | 56 | 334 | 0.0 | 0.0 | 0.00 | 0.00 | 0.00 | 91 | 1015.2 |
| 20260507185202 | 55 | 359 | 0.0 | 0.0 | 0.00 | 0.00 | 0.00 | 91 | 1015.1 |
| 20260507184700 | 55 | 14 | 0.0 | 0.0 | 0.00 | 0.00 | 0.00 | 92 | 1014.9 |
| 20260507184158 | 55 | 351 | 0.0 | 0.0 | 0.00 | 0.00 | 0.00 | 92 | 1015.2 |
| 20260507183654 | 55 | 343 | 0.0 | 1.0 | 0.00 | 0.00 | 0.00 | 92 | 1015.2 |
| 20260507183151 | 54 | 344 | 0.0 | 1.0 | 0.00 | 0.00 | 0.00 | 93 | 1015.2 |
| 20260507182648 | 54 | 351 | 1.0 | 1.0 | 0.00 | 0.00 | 0.00 | 93 | 1015.2 |
| 20260507182143 | 54 | 349 | 0.0 | 0.0 | 0.00 | 0.00 | 0.00 | 93 | 1015.3 |
| 20260507181640 | 54 | 343 | 1.0 | 1.0 | 0.00 | 0.00 | 0.00 | 93 | 1015.2 |
| 20260507181136 | 54 | 350 | 0.0 | 0.0 | 0.00 | 0.00 | 0.00 | 93 | 1015.2 |
| 20260507180633 | 54 | 325 | 1.0 | 1.0 | 0.00 | 0.00 | 0.00 | 93 | 1015.3 |
| 20260507180130 | 54 | 5 | 0.0 | 1.0 | 0.00 | 0.00 | 0.00 | 95 | 1015.3 |
| 20260507175626 | 54 | 357 | 0.0 | 0.0 | 0.00 | 0.00 | 0.00 | 94 | 1015.4 |
| 20260507175123 | 54 | 352 | 0.0 | 1.0 | 0.00 | 0.00 | 0.00 | 94 | 1015.3 |
| 20260507171017 | 54 | 349 | 0.0 | 0.0 | 0.00 | 0.00 | 0.00 | 95 | 1015.3 |
| 20260507170513 | 54 | 349 | 0.0 | 0.0 | 0.00 | 0.00 | 0.00 | 95 | 1015.3 |
| 20260507170010 | 54 | 335 | 1.0 | 1.0 | 0.00 | 0.00 | 0.00 | 95 | 1015.1 |
| 20260507165506 | 54 | 344 | 1.0 | 1.0 | 0.00 | 0.00 | 0.00 | 94 | 1015.2 |
| 20260507165003 | 53 | 347 | 1.0 | 1.0 | 0.00 | 0.00 | 0.00 | 94 | 1015.1 |
| 20260507164459 | 53 | 353 | 0.0 | 0.0 | 0.00 | 0.00 | 0.00 | 94 | 1014.9 |
| 20260507163956 | 54 | 349 | 1.0 | 1.0 | 0.00 | 0.00 | 0.00 | 94 | 1014.9 |
| 20260507163453 | 53 | 348 | 0.0 | 0.0 | 0.00 | 0.00 | 0.00 | 95 | 1015.0 |
| 20260507162950 | 53 | 333 | 0.0 | 1.0 | 0.00 | 0.00 | 0.00 | 94 | 1014.9 |
| 20260507162446 | 54 | 330 | 1.0 | 1.0 | 0.00 | 0.00 | 0.00 | 94 | 1015.0 |
| 20260507161943 | 53 | 352 | 0.0 | 0.0 | 0.00 | 0.00 | 0.00 | 95 | 1015.0 |
| 20260507161439 | 53 | 352 | 0.0 | 0.0 | 0.00 | 0.00 | 0.00 | 95 | 1014.9 |
| 20260507160936 | 53 | 352 | 0.0 | 0.0 | 0.00 | 0.00 | 0.00 | 95 | 1014.9 |
| 20260507160432 | 53 | 354 | 0.0 | 0.0 | 0.00 | 0.00 | 0.00 | 96 | 1014.7 |
| 20260507155927 | 53 | 354 | 0.0 | 0.0 | 0.00 | 0.00 | 0.00 | 96 | 1014.8 |
| 20260507155424 | 52 | 353 | 0.0 | 0.0 | 0.00 | 0.00 | 0.00 | 96 | 1014.8 |
| 20260507154921 | 53 | 344 | 0.0 | 1.0 | 0.00 | 0.00 | 0.00 | 95 | 1014.8 |
| 20260507154418 | 53 | 343 | 0.0 | 0.0 | 0.00 | 0.00 | 0.00 | 95 | 1014.8 |
| 20260507153915 | 53 | 342 | 0.0 | 1.0 | 0.00 | 0.00 | 0.00 | 95 | 1014.7 |
| 20260507153412 | 53 | 347 | 0.0 | 0.0 | 0.00 | 0.00 | 0.00 | 96 | 1014.9 |
| 20260507152908 | 52 | 347 | 0.0 | 0.0 | 0.00 | 0.00 | 0.00 | 97 | 1014.7 |
| 20260507152404 | 52 | 347 | 0.0 | 0.0 | 0.00 | 0.00 | 0.00 | 97 | 1014.9 |
| 20260507151900 | 52 | 348 | 0.0 | 0.0 | 0.00 | 0.00 | 0.00 | 98 | 1014.9 |
| 20260507151356 | 52 | 348 | 0.0 | 0.0 | 0.00 | 0.00 | 0.00 | 99 | 1014.7 |
| 20260507150854 | 52 | 348 | 0.0 | 0.0 | 0.00 | 0.00 | 0.00 | 99 | 1014.7 |
| 20260507150351 | 52 | 348 | 0.0 | 0.0 | 0.00 | 0.00 | 0.00 | 99 | 1014.7 |
| 20260507145847 | 51 | 348 | 0.0 | 0.0 | 0.00 | 0.00 | 0.00 | 99 | 1014.8 |
| 20260507145343 | 51 | 348 | 0.0 | 0.0 | 0.00 | 0.00 | 0.00 | 99 | 1014.6 |
| 20260507144840 | 51 | 348 | 0.0 | 0.0 | 0.00 | 0.00 | 0.00 | 99 | 1014.8 |
| 20260507144337 | 51 | 348 | 0.0 | 0.0 | 0.00 | 0.00 | 0.00 | 99 | 1014.8 |
| 20260507143834 | 51 | 348 | 0.0 | 0.0 | 0.00 | 0.00 | 0.00 | 99 | 1014.7 |
| 20260507143331 | 51 | 348 | 0.0 | 0.0 | 0.00 | 0.00 | 0.00 | 99 | 1014.7 |
| 20260507142827 | 51 | 347 | 0.0 | 0.0 | 0.00 | 0.00 | 0.00 | 99 | 1014.9 |
| 20260507142324 | 51 | 354 | 0.0 | 0.0 | 0.00 | 0.00 | 0.00 | 99 | 1014.5 |
| 20260507141821 | 51 | 354 | 0.0 | 0.0 | 0.00 | 0.00 | 0.00 | 99 | 1014.5 |
| 20260507141317 | 51 | 354 | 0.0 | 0.0 | 0.00 | 0.00 | 0.00 | 99 | 1014.5 |
| 20260507140814 | 51 | 354 | 0.0 | 0.0 | 0.00 | 0.00 | 0.00 | 99 | 1014.3 |
| 20260507140311 | 51 | 354 | 0.0 | 0.0 | 0.00 | 0.00 | 0.00 | 99 | 1014.3 |
| 20260507135808 | 51 | 354 | 0.0 | 0.0 | 0.00 | 0.00 | 0.00 | 99 | 1014.5 |
| 20260507135306 | 51 | 354 | 0.0 | 0.0 | 0.00 | 0.00 | 0.00 | 99 | 1014.3 |
| 20260507134802 | 51 | 354 | 0.0 | 0.0 | 0.00 | 0.00 | 0.00 | 99 | 1014.2 |
| 20260507134258 | 51 | 354 | 0.0 | 0.0 | 0.00 | 0.00 | 0.00 | 99 | 1014.4 |
| 20260507133754 | 51 | 354 | 0.0 | 0.0 | 0.00 | 0.00 | 0.00 | 99 | 1014.2 |
| 20260507133250 | 51 | 354 | 0.0 | 0.0 | 0.00 | 0.00 | 0.00 | 99 | 1014.1 |
| 20260507132749 | 51 | 354 | 0.0 | 0.0 | 0.00 | 0.00 | 0.00 | 99 | 1014.1 |
| 20260507132245 | 51 | 354 | 0.0 | 0.0 | 0.00 | 0.00 | 0.00 | 99 | 1014.1 |
| 20260507131742 | 51 | 354 | 0.0 | 0.0 | 0.00 | 0.00 | 0.00 | 99 | 1013.9 |
| 20260507131239 | 51 | 354 | 0.0 | 0.0 | 0.00 | 0.00 | 0.00 | 99 | 1014.0 |
| 20260507130735 | 51 | 354 | 0.0 | 0.0 | 0.00 | 0.00 | 0.00 | 99 | 1014.1 |
| 20260507130233 | 51 | 354 | 0.0 | 0.0 | 0.00 | 0.00 | 0.00 | 99 | 1014.3 |
| 20260507125732 | 51 | 354 | 0.0 | 0.0 | 0.00 | 0.00 | 0.00 | 99 | 1014.1 |
| 20260507125229 | 51 | 354 | 0.0 | 0.0 | 0.00 | 0.00 | 0.00 | 99 | 1014.2 |
| 20260507124726 | 51 | 354 | 0.0 | 0.0 | 0.00 | 0.00 | 0.00 | 99 | 1013.9 |
| 20260507124222 | 51 | 354 | 0.0 | 0.0 | 0.00 | 0.00 | 0.00 | 99 | 1014.0 |
| 20260507123721 | 51 | 354 | 0.0 | 0.0 | 0.00 | 0.00 | 0.00 | 99 | 1014.2 |
| 20260507123218 | 51 | 354 | 0.0 | 0.0 | 0.00 | 0.00 | 0.00 | 99 | 1014.1 |
| 20260507122713 | 51 | 354 | 0.0 | 0.0 | 0.00 | 0.00 | 0.00 | 99 | 1014.3 |
| 20260507122209 | 51 | 354 | 0.0 | 0.0 | 0.00 | 0.00 | 0.00 | 99 | 1014.2 |
| 20260507121705 | 51 | 354 | 0.0 | 0.0 | 0.00 | 0.00 | 0.00 | 99 | 1014.2 |
| 20260507121201 | 51 | 354 | 0.0 | 0.0 | 0.00 | 0.00 | 0.00 | 99 | 1014.2 |
| 20260507120657 | 51 | 354 | 0.0 | 0.0 | 0.00 | 0.00 | 0.00 | 99 | 1014.0 |
| 20260507120154 | 51 | 354 | 0.0 | 0.0 | 0.00 | 0.00 | 0.00 | 99 | 1014.3 |
| 20260507115651 | 51 | 354 | 0.0 | 0.0 | 0.00 | 0.00 | 0.00 | 99 | 1014.2 |
| 20260507115146 | 51 | 354 | 0.0 | 0.0 | 0.00 | 0.00 | 0.00 | 99 | 1014.4 |
| 20260507114643 | 51 | 354 | 0.0 | 0.0 | 0.00 | 0.00 | 0.00 | 99 | 1014.3 |
| 20260507114140 | 51 | 354 | 0.0 | 0.0 | 0.00 | 0.00 | 0.00 | 99 | 1014.2 |
| 20260507113637 | 51 | 354 | 0.0 | 0.0 | 0.00 | 0.00 | 0.00 | 99 | 1014.3 |
| 20260507113134 | 51 | 354 | 0.0 | 0.0 | 0.00 | 0.00 | 0.00 | 99 | 1014.4 |
| 20260507112632 | 51 | 354 | 0.0 | 0.0 | 0.00 | 0.00 | 0.00 | 99 | 1014.2 |
| 20260507112128 | 51 | 354 | 0.0 | 0.0 | 0.00 | 0.00 | 0.00 | 99 | 1014.5 |
| 20260507111626 | 51 | 354 | 0.0 | 0.0 | 0.00 | 0.00 | 0.00 | 99 | 1014.6 |
| 20260507111122 | 51 | 354 | 0.0 | 0.0 | 0.00 | 0.00 | 0.00 | 99 | 1014.5 |
| 20260507110618 | 51 | 354 | 0.0 | 0.0 | 0.00 | 0.00 | 0.00 | 99 | 1014.5 |
| 20260507110115 | 51 | 354 | 0.0 | 0.0 | 0.00 | 0.00 | 0.00 | 99 | 1014.5 |
| 20260507105612 | 51 | 354 | 0.0 | 0.0 | 0.00 | 0.00 | 0.00 | 99 | 1014.5 |
| 20260507105108 | 52 | 354 | 0.0 | 0.0 | 0.00 | 0.00 | 0.00 | 99 | 1014.6 |
| 20260507104606 | 51 | 354 | 0.0 | 0.0 | 0.00 | 0.00 | 0.00 | 99 | 1014.6 |
| 20260507104102 | 51 | 354 | 0.0 | 0.0 | 0.00 | 0.00 | 0.00 | 99 | 1014.7 |
| 20260507103558 | 51 | 354 | 0.0 | 0.0 | 0.00 | 0.00 | 0.00 | 99 | 1014.8 |
| 20260507103055 | 52 | 354 | 0.0 | 0.0 | 0.00 | 0.00 | 0.00 | 99 | 1014.9 |
| 20260507102551 | 52 | 354 | 0.0 | 0.0 | 0.00 | 0.00 | 0.00 | 99 | 1015.1 |
| 20260507102047 | 52 | 354 | 0.0 | 0.0 | 0.00 | 0.00 | 0.00 | 99 | 1015.0 |
| 20260507101543 | 52 | 354 | 0.0 | 0.0 | 0.00 | 0.00 | 0.00 | 99 | 1014.9 |
| 20260507101039 | 52 | 354 | 0.0 | 0.0 | 0.00 | 0.00 | 0.00 | 99 | 1015.0 |
| 20260507100537 | 52 | 354 | 0.0 | 0.0 | 0.00 | 0.00 | 0.00 | 99 | 1014.9 |
| 20260507100035 | 52 | 354 | 0.0 | 0.0 | 0.00 | 0.00 | 0.00 | 99 | 1015.0 |
| 20260507095533 | 52 | 354 | 0.0 | 0.0 | 0.00 | 0.00 | 0.00 | 99 | 1015.1 |
| 20260507095029 | 52 | 354 | 0.0 | 0.0 | 0.00 | 0.00 | 0.00 | 99 | 1015.1 |
| 20260507094525 | 52 | 354 | 0.0 | 0.0 | 0.00 | 0.00 | 0.00 | 99 | 1015.0 |
| 20260507094022 | 52 | 354 | 0.0 | 0.0 | 0.00 | 0.00 | 0.00 | 99 | 1015.1 |
| 20260507093520 | 52 | 354 | 0.0 | 0.0 | 0.00 | 0.00 | 0.00 | 99 | 1015.2 |
| 20260507093018 | 52 | 354 | 0.0 | 0.0 | 0.00 | 0.00 | 0.00 | 99 | 1015.2 |
| 20260507092514 | 52 | 354 | 0.0 | 0.0 | 0.00 | 0.00 | 0.00 | 99 | 1015.4 |
| 20260507092011 | 52 | 354 | 0.0 | 0.0 | 0.00 | 0.00 | 0.00 | 99 | 1015.1 |
| 20260507091508 | 52 | 354 | 0.0 | 0.0 | 0.00 | 0.00 | 0.00 | 99 | 1015.2 |
| 20260507091004 | 52 | 354 | 0.0 | 0.0 | 0.00 | 0.00 | 0.00 | 99 | 1015.4 |
| 20260507090500 | 52 | 354 | 0.0 | 0.0 | 0.00 | 0.00 | 0.00 | 99 | 1015.1 |
| 20260507085956 | 52 | 354 | 0.0 | 0.0 | 0.00 | 0.00 | 0.00 | 99 | 1015.2 |
| 20260507085454 | 52 | 354 | 0.0 | 0.0 | 0.00 | 0.00 | 0.00 | 99 | 1015.6 |
| 20260507084950 | 52 | 354 | 0.0 | 0.0 | 0.00 | 0.00 | 0.00 | 99 | 1015.6 |
| 20260507084447 | 52 | 354 | 0.0 | 0.0 | 0.00 | 0.00 | 0.00 | 99 | 1015.4 |
| 20260507083944 | 52 | 354 | 0.0 | 0.0 | 0.00 | 0.00 | 0.00 | 99 | 1015.3 |
| 20260507083441 | 52 | 354 | 0.0 | 0.0 | 0.00 | 0.00 | 0.00 | 99 | 1015.4 |
| 20260507082937 | 52 | 354 | 0.0 | 0.0 | 0.00 | 0.00 | 0.00 | 99 | 1015.2 |
| 20260507082433 | 52 | 354 | 0.0 | 0.0 | 0.00 | 0.00 | 0.00 | 99 | 1015.3 |
| 20260507081930 | 52 | 354 | 0.0 | 0.0 | 0.00 | 0.00 | 0.00 | 99 | 1015.3 |
| 20260507081426 | 52 | 354 | 0.0 | 0.0 | 0.00 | 0.00 | 0.00 | 99 | 1015.2 |
| 20260507080923 | 52 | 353 | 0.0 | 0.0 | 0.00 | 0.00 | 0.00 | 99 | 1015.5 |
| 20260507080419 | 52 | 354 | 0.0 | 0.0 | 0.00 | 0.00 | 0.00 | 99 | 1015.6 |
| 20260507075914 | 52 | 354 | 0.0 | 0.0 | 0.00 | 0.00 | 0.00 | 99 | 1015.6 |
| 20260507075411 | 52 | 354 | 0.0 | 0.0 | 0.00 | 0.00 | 0.00 | 99 | 1015.7 |
| 20260507074908 | 52 | 340 | 0.0 | 0.0 | 0.00 | 0.00 | 0.00 | 99 | 1015.4 |
| 20260507074404 | 52 | 355 | 0.0 | 0.0 | 0.00 | 0.00 | 0.00 | 99 | 1015.3 |
| 20260507073902 | 52 | 345 | 0.0 | 0.0 | 0.00 | 0.00 | 0.00 | 99 | 1015.5 |
| 20260507073358 | 52 | 345 | 0.0 | 0.0 | 0.00 | 0.00 | 0.00 | 99 | 1015.4 |
| 20260507072856 | 52 | 2 | 0.0 | 0.0 | 0.00 | 0.00 | 0.00 | 99 | 1015.4 |
| 20260507072353 | 52 | 355 | 0.0 | 0.0 | 0.00 | 0.00 | 0.00 | 99 | 1015.4 |
| 20260507071850 | 53 | 355 | 0.0 | 0.0 | 0.00 | 0.00 | 0.00 | 99 | 1015.4 |
| 20260507071348 | 53 | 355 | 0.0 | 0.0 | 0.00 | 0.00 | 0.00 | 99 | 1015.3 |
| 20260507070843 | 53 | 355 | 0.0 | 0.0 | 0.00 | 0.00 | 0.00 | 99 | 1015.2 |
| 20260507070341 | 53 | 355 | 0.0 | 0.0 | 0.00 | 0.00 | 0.00 | 99 | 1015.3 |
| 20260507065838 | 53 | 356 | 0.0 | 0.0 | 0.00 | 0.03 | 0.03 | 99 | 1015.3 |
| 20260507065334 | 53 | 356 | 0.0 | 0.0 | 0.00 | 0.03 | 0.03 | 99 | 1015.3 |
| 20260507064831 | 53 | 356 | 0.0 | 0.0 | 0.00 | 0.03 | 0.03 | 99 | 1015.5 |
| 20260507064330 | 53 | 356 | 0.0 | 0.0 | 0.00 | 0.03 | 0.03 | 99 | 1015.3 |
| 20260507063828 | 53 | 356 | 0.0 | 0.0 | 0.00 | 0.03 | 0.03 | 99 | 1015.3 |
| 20260507063324 | 53 | 356 | 0.0 | 0.0 | 0.00 | 0.03 | 0.03 | 99 | 1015.3 |
| 20260507062821 | 53 | 356 | 0.0 | 0.0 | 0.00 | 0.03 | 0.03 | 99 | 1015.6 |
| 20260507062318 | 53 | 356 | 0.0 | 0.0 | 0.00 | 0.03 | 0.03 | 99 | 1015.6 |
| 20260507061816 | 53 | 356 | 0.0 | 0.0 | 0.00 | 0.03 | 0.03 | 99 | 1015.3 |
| 20260507061314 | 53 | 356 | 0.0 | 0.0 | 0.00 | 0.03 | 0.03 | 99 | 1015.4 |
| 20260507060812 | 53 | 356 | 0.0 | 0.0 | 0.00 | 0.03 | 0.03 | 99 | 1015.5 |
| 20260507060308 | 53 | 356 | 0.0 | 0.0 | 0.00 | 0.03 | 0.03 | 99 | 1015.4 |
| 20260507055805 | 53 | 356 | 0.0 | 0.0 | 0.00 | 0.03 | 0.03 | 99 | 1015.4 |
| 20260507055300 | 53 | 356 | 0.0 | 0.0 | 0.00 | 0.03 | 0.03 | 99 | 1015.3 |
| 20260507054756 | 53 | 356 | 0.0 | 0.0 | 0.00 | 0.03 | 0.03 | 99 | 1015.5 |
| 20260507054253 | 53 | 356 | 0.0 | 0.0 | 0.00 | 0.03 | 0.03 | 99 | 1015.5 |
| 20260507053751 | 53 | 356 | 0.0 | 0.0 | 0.00 | 0.03 | 0.03 | 99 | 1015.3 |
| 20260507053248 | 53 | 356 | 0.0 | 0.0 | 0.00 | 0.03 | 0.03 | 99 | 1015.7 |
| 20260507052747 | 53 | 356 | 0.0 | 0.0 | 0.00 | 0.03 | 0.03 | 99 | 1015.7 |
| 20260507052243 | 53 | 356 | 0.0 | 0.0 | 0.00 | 0.03 | 0.03 | 99 | 1015.6 |
| 20260507051741 | 53 | 356 | 0.0 | 0.0 | 0.00 | 0.03 | 0.03 | 99 | 1016.0 |
| 20260507051237 | 53 | 356 | 0.0 | 0.0 | 0.00 | 0.03 | 0.03 | 99 | 1015.8 |
| 20260507050734 | 53 | 356 | 0.0 | 0.0 | 0.00 | 0.03 | 0.03 | 99 | 1015.8 |
| 20260507050231 | 53 | 356 | 0.0 | 0.0 | 0.00 | 0.03 | 0.03 | 99 | 1015.7 |
| 20260507045728 | 53 | 356 | 0.0 | 0.0 | 0.00 | 0.03 | 0.03 | 99 | 1016.1 |
| 20260507045224 | 53 | 353 | 0.0 | 0.0 | 0.00 | 0.03 | 0.03 | 99 | 1015.8 |
| 20260507044722 | 53 | 353 | 0.0 | 0.0 | 0.00 | 0.03 | 0.03 | 99 | 1016.0 |
| 20260507044218 | 53 | 353 | 0.0 | 0.0 | 0.00 | 0.03 | 0.03 | 99 | 1015.8 |
| 20260507043714 | 53 | 353 | 0.0 | 0.0 | 0.00 | 0.03 | 0.03 | 99 | 1016.1 |
| 20260507043211 | 53 | 354 | 0.0 | 0.0 | 0.00 | 0.03 | 0.03 | 99 | 1015.9 |
| 20260507042708 | 53 | 354 | 0.0 | 0.0 | 0.00 | 0.03 | 0.03 | 99 | 1015.8 |
| 20260507042202 | 53 | 354 | 0.0 | 0.0 | 0.00 | 0.03 | 0.03 | 99 | 1015.9 |
| 20260507041700 | 53 | 354 | 0.0 | 0.0 | 0.00 | 0.03 | 0.03 | 99 | 1015.9 |
| 20260507041156 | 53 | 354 | 0.0 | 0.0 | 0.00 | 0.03 | 0.03 | 99 | 1015.9 |
| 20260507040653 | 53 | 354 | 0.0 | 0.0 | 0.00 | 0.03 | 0.03 | 99 | 1016.0 |
| 20260507040150 | 53 | 354 | 0.0 | 0.0 | 0.00 | 0.03 | 0.03 | 99 | 1015.8 |
| 20260507035646 | 53 | 354 | 0.0 | 0.0 | 0.00 | 0.03 | 0.03 | 99 | 1015.9 |
| 20260507035142 | 53 | 354 | 0.0 | 0.0 | 0.00 | 0.03 | 0.03 | 99 | 1015.9 |
| 20260507034639 | 53 | 353 | 0.0 | 0.0 | 0.00 | 0.03 | 0.03 | 99 | 1015.9 |
| 20260507034136 | 53 | 354 | 0.0 | 0.0 | 0.00 | 0.03 | 0.03 | 99 | 1015.9 |
| 20260507033635 | 53 | 354 | 0.0 | 0.0 | 0.00 | 0.03 | 0.03 | 98 | 1016.1 |
| 20260507033132 | 53 | 354 | 0.0 | 0.0 | 0.00 | 0.03 | 0.03 | 98 | 1016.1 |
| 20260507032629 | 53 | 353 | 0.0 | 0.0 | 0.00 | 0.03 | 0.03 | 98 | 1016.1 |
| 20260507032125 | 53 | 353 | 0.0 | 0.0 | 0.00 | 0.03 | 0.03 | 97 | 1015.8 |
| 20260507031622 | 53 | 353 | 0.0 | 0.0 | 0.00 | 0.03 | 0.03 | 97 | 1016.0 |
| 20260507031118 | 53 | 353 | 0.0 | 0.0 | 0.00 | 0.03 | 0.03 | 97 | 1015.8 |
| 20260507030615 | 53 | 353 | 0.0 | 0.0 | 0.00 | 0.03 | 0.03 | 97 | 1015.9 |
| 20260507030113 | 53 | 354 | 0.0 | 0.0 | 0.00 | 0.03 | 0.03 | 97 | 1016.0 |
| 20260507025610 | 53 | 353 | 0.0 | 0.0 | 0.00 | 0.03 | 0.03 | 96 | 1015.9 |
| 20260507025107 | 53 | 353 | 0.0 | 0.0 | 0.00 | 0.03 | 0.03 | 96 | 1015.9 |
| 20260507024605 | 54 | 353 | 0.0 | 0.0 | 0.00 | 0.03 | 0.03 | 96 | 1015.8 |
| 20260507024102 | 54 | 352 | 0.0 | 0.0 | 0.00 | 0.03 | 0.03 | 96 | 1015.9 |
| 20260507023557 | 54 | 4 | 0.0 | 0.0 | 0.00 | 0.03 | 0.03 | 95 | 1015.8 |
| 20260507023055 | 54 | 349 | 0.0 | 0.0 | 0.00 | 0.03 | 0.03 | 95 | 1016.0 |
| 20260507022551 | 54 | 350 | 0.0 | 0.0 | 0.00 | 0.03 | 0.03 | 95 | 1016.1 |
| 20260507022041 | 54 | 350 | 0.0 | 0.0 | 0.00 | 0.03 | 0.03 | 94 | 1016.1 |
| 20260507021537 | 54 | 349 | 0.0 | 0.0 | 0.00 | 0.03 | 0.03 | 94 | 1016.1 |
| 20260507021034 | 54 | 351 | 0.0 | 0.0 | 0.00 | 0.03 | 0.03 | 94 | 1016.3 |
| 20260507020532 | 54 | 345 | 0.0 | 1.0 | 0.00 | 0.03 | 0.03 | 94 | 1016.3 |
| 20260507020028 | 54 | 347 | 0.0 | 1.0 | 0.00 | 0.03 | 0.03 | 94 | 1016.1 |
| 20260507015526 | 54 | 348 | 0.0 | 0.0 | 0.00 | 0.03 | 0.03 | 94 | 1016.0 |
| 20260507015024 | 54 | 349 | 0.0 | 0.0 | 0.00 | 0.03 | 0.03 | 94 | 1016.4 |
| 20260507014520 | 54 | 346 | 0.0 | 1.0 | 0.00 | 0.03 | 0.03 | 93 | 1016.3 |
| 20260507014016 | 54 | 352 | 0.0 | 0.0 | 0.00 | 0.03 | 0.03 | 93 | 1016.3 |
| 20260507013513 | 55 | 351 | 1.0 | 1.0 | 0.00 | 0.03 | 0.03 | 93 | 1016.4 |
| 20260507013010 | 55 | 347 | 0.0 | 1.0 | 0.00 | 0.03 | 0.03 | 93 | 1016.4 |
| 20260507012507 | 55 | 348 | 1.0 | 1.0 | 0.00 | 0.03 | 0.03 | 93 | 1016.4 |
| 20260507012003 | 55 | 349 | 0.0 | 0.0 | 0.00 | 0.03 | 0.03 | 92 | 1016.4 |
| 20260507011501 | 55 | 346 | 0.0 | 0.0 | 0.00 | 0.03 | 0.03 | 91 | 1016.7 |